User: anonymous   Login
Location: Unspecified
(0.0000°N, 0.0000°E)
Time: 00:37:34
(UTC+00:00)
Language:

Nadezhda 6 - Orbit

View from above orbital plane
View from above orbital plane
View from above satellite
View from above satellite

Ground track
Ground track

The orbit data is extracted from the following two-line orbital elements,

1 26384U 00033A   17206.52086037 +.00000141 +00000-0 +34054-4 0  9992
2 26384 098.0129 271.4708 0013954 268.9309 091.0298 14.66352184912429
Epoch (UTC): 25 July 2017 12:30:02
Eccentricity: 0.0013954
inclination: 98.0129°
perigee height: 663 km
apogee height: 682 km
right ascension of ascending node: 271.4708°
argument of perigee: 268.9309°
revolutions per day: 14.66352184
mean anomaly at epoch: 91.0298°
orbit number at epoch: 91242

The dashed part of the orbit path shows where the satellite is in the earth's shadow,  

DLR